Location: Palombina Nuova
(43.6167°N, 13.4000°E)
Time: 04:25:28
(UTC+00:00)

Daily predictions for brighter satellites

Satellite Brightness Start Highest point End
(mag) Time Altitude Azimuth Time Altitude Azimuth Time Altitude Azimuth
Cosmos 2237 Rocket 4.4 02:21:12 20° NE 02:21:12 20° NE 02:22:50 10° NNE
NOSS 3-1 (C) 4.1 02:49:15 74° NNE 02:49:44 76° NE 02:58:23 10° SE
Cosmos 1943 Rocket 4.4 02:49:51 10° N 02:53:57 21° NE 02:58:02 10° E
Lacrosse 5 3.7 02:59:21 26° NNE 02:59:21 26° NNE 03:03:09 10° E
SL-16 R/B 3.0 02:59:39 48° E 02:59:39 48° E 03:04:31 10° NE
Gbstr 26 Del rocket 4.4 03:04:09 64° SSE 03:04:09 64° SSE 03:10:48 10° SE
CZ-2C R/B 3.3 03:04:02 10° NNE 03:08:22 49° ENE 03:08:22 49° ENE
Cosmos 2369 Rocket 4.3 03:09:41 10° N 03:14:18 24° NE 03:18:53 10° ESE
USA 215 4.2 03:13:57 10° NE 03:19:42 34° NNW 03:19:59 34° NNW
CZ-4C R/B 3.4 03:29:40 31° NNW 03:29:40 31° NNW 03:33:53 10° NNE
Cosmos 2333 Rocket 4.4 03:31:49 13° NNW 03:31:49 13° NNW 03:32:59 10° N
USA 229 DEB 3.8 03:35:49 59° W 03:36:41 63° WSW 03:44:10 10° SSE
USA 229 3.8 03:35:52 59° W 03:36:47 64° WSW 03:44:16 10° SSE
ATLAS CENTAUR R/B 2.4 03:43:09 43° N 03:43:09 43° N 03:46:21 10° NNE
Cosmos 1484 Rocket 4.1 03:38:20 10° NNE 03:42:04 39° E 03:44:58 15° SSE
ALOS 4.1 03:38:38 10° NNE 03:42:47 31° E 03:46:54 10° SSE
CZ-4B R/B 3.7 03:39:15 10° NNE 03:42:15 43° ENE 03:42:15 43° ENE
NOSS 3-1 (A) 4.0 03:39:16 30° NW 03:43:42 83° WSW 03:52:25 10° SSE
STARLINK-1038 4.4 03:48:15 44° SE 03:48:15 44° SE 03:51:09 10° SE
H-2A R/B 2.8 03:43:04 10° NNE 03:47:27 71° ESE 03:48:34 48° S
Cosmos 1842 Rocket 4.4 03:43:58 10° S 03:48:16 52° E 03:52:38 10° NNE
STARLINK-1046 4.3 03:53:02 47° SSE 03:53:02 47° SSE 03:56:07 10° SE
Cosmos 1934 Rocket 4.0 03:47:33 10° NNW 03:53:42 57° W 03:59:53 10° SSW
STARLINK-1039 4.1 03:57:48 49° S 03:57:48 49° S 04:01:04 10° SE
Cosmos 1356 Rocket 4.0 03:58:21 45° N 03:58:21 45° N 04:01:16 10° N
Cosmos 1992 Rocket 3.8 03:55:39 44° NW 03:57:18 73° WSW 04:02:30 10° S
Cosmos 2251 Rocket 3.5 04:01:11 55° W 04:01:33 57° WNW 04:06:47 10° NNE
Cosmos 2237 Rocket 3.6 04:03:01 21° NNW 04:03:01 21° NNW 04:06:14 10° N
STARLINK-1045 4.0 04:02:36 49° S 04:02:36 49° S 04:06:01 10° SE
COSMO-SKYMED 1 3.1 04:00:13 10° SSE 04:04:29 58° ENE 04:08:46 10° N
BREEZE M DEB (TANK) 3.8 04:06:13 33° N 04:06:44 35° NNE 04:12:21 10° E
STARLINK-1050 4.0 04:07:29 47° SSW 04:07:29 47° SSW 04:10:59 10° SSE
Meteor 1-31 Rocket 3.5 04:05:48 10° N 04:08:25 39° NNW 04:08:25 39° NNW
NOSS 2-1 (C) 4.4 04:12:26 27° N 04:12:26 27° N 04:14:47 10° NNE
STARLINK-1055 4.0 04:12:14 45° SSW 04:12:14 45° SSW 04:15:52 10° SSE
Cosmos 1605 Rocket 3.9 04:07:46 10° NNW 04:13:55 60° W 04:19:56 10° S
NOSS 2-1 (D) 4.4 04:16:24 26° NNW 04:16:24 26° NNW 04:18:48 10° NNE
Cosmos 1408 Rocket 3.6 04:16:25 49° WNW 04:16:47 50° W 04:21:00 10° SSW
STARLINK-1022 4.1 04:17:01 41° SW 04:17:01 41° SW 04:20:46 10° SSE
GEOS 3 Rocket 3.8 04:14:08 10° NNE 04:19:18 54° NW 04:21:26 33° WSW
Cosmos 2221 2.4 04:15:52 10° S 04:20:07 87° E 04:24:26 10° N
CZ-4B R/B 4.2 04:16:24 10° N 04:20:33 48° WNW 04:21:32 40° WSW
STARLINK-1042 4.2 04:21:48 38° SW 04:21:49 38° SW 04:25:40 10° SSE
SJ-12 4.0 04:20:04 10° NNE 04:24:13 81° ESE 04:28:21 10° S
Cosmos 1869 3.8 04:21:16 10° S 04:25:13 61° E 04:29:09 10° NNE
Cosmos 1153 Rocket 4.3 04:19:53 10° NNW 04:26:02 75° W 04:32:07 10° S
STARLINK-1056 4.3 04:26:35 35° SW 04:26:46 35° SW 04:30:32 10° SSE
Meteor 2-10 Rocket 4.2 04:27:20 31° W 04:27:48 32° WNW 04:32:28 10° N
SKYMED 3 4.4 04:24:13 10° S 04:28:33 77° WSW 04:32:55 10° NNW
METEOR-M 4.2 04:24:34 10° NNE 04:29:57 84° ESE 04:35:17 10° SSW
STARLINK-1054 4.4 04:31:21 31° WSW 04:31:43 32° SW 04:35:24 10° SSE
Cosmos 1943 Rocket 2.0 04:32:45 10° NNW 04:38:14 69° WSW 04:43:41 10° SSE
Cosmos 1727 Rocket 4.0 04:32:17 10° SSW 04:38:23 60° W 04:44:30 10° N
Cosmos 1238 Rocket 4.4 04:34:12 10° N 04:40:23 58° ENE 04:45:39 10° SSE
ADEOS Rocket 3.8 04:35:54 10° SSE 04:41:54 59° ENE 04:48:36 10° N
Lacrosse 5 1.8 04:38:34 18° NW 04:42:25 89° SW 04:47:29 10° SE
SL-16 R/B 3.1 04:41:35 23° W 04:43:25 28° NW 04:48:15 10° N
CZ-2C R/B 3.7 04:43:05 10° NNW 04:46:56 22° WNW 04:47:46 21° WNW
Cosmos 2173 Rocket 4.0 04:44:10 10° N 04:50:30 83° W 04:56:42 10° S
Cosmos 407 Rocket 3.5 04:46:53 10° SSW 04:52:13 76° WNW 04:57:33 10° NNE
SKYMED 2 3.9 04:48:31 10° S 04:52:37 42° W 04:56:46 10° NNW
Cosmos 1805 Rocket 3.5 04:50:49 10° N 04:55:10 87° E 04:59:30 10° S
FENGYUN 3A 3.7 04:52:18 10° N 04:57:38 56° WNW 05:02:55 10° SSW
Cosmos 2369 Rocket 2.2 04:53:07 10° NNW 04:58:45 60° WSW 05:04:21 10° S
Cosmos 1862 3.9 04:55:10 10° N 04:59:06 59° E 05:03:00 10° SSE
Cosmos 1140 Rocket 3.5 04:53:55 10° SSW 04:59:09 90° E 05:04:27 10° NNE
Cosmos 1603 3.7 04:53:30 10° SW 04:59:10 64° WNW 05:04:51 10° NNE
Cosmos 1238 4.4 04:57:00 10° SSW 04:59:58 43° W 05:02:53 10° N
H-2A R/B 4.0 04:58:11 10° NNE 05:01:50 45° E 05:05:24 10° S
Sich 1 3.2 04:58:09 10° N 05:02:27 75° E 05:06:45 10° SSE
Cosmos 2100 Rocket 4.0 04:56:32 10° NNW 05:02:40 62° W 05:08:42 10° S
Cosmos 1500 Rocket 4.2 04:58:49 10° NNW 05:02:51 34° W 05:06:49 10° SSW
Okean O Rocket 1.6 04:58:43 10° NNE 05:03:08 90° SSE 05:07:29 10° SSW
CZ-4B DEB 4.2 04:57:44 10° N 05:03:10 65° WNW 05:08:34 10° SSW
Cosmos 1943 3.1 05:00:45 10° SSW 05:06:21 71° WNW 05:11:59 10° NNE
Meteor 2-3 Rocket 4.4 05:01:49 10° NNW 05:06:48 31° W 05:11:48 10° SSW
Cosmos 2263 4.2 05:02:46 10° NNW 05:08:26 69° WSW 05:14:02 10° SSE
Cosmos 2061 Rocket 4.0 05:04:15 10° N 05:10:33 82° W 05:16:46 10° S
STARLINK-1098 4.1 05:08:22 10° SW 05:12:15 57° SE 05:16:10 10° ENE
STARLINK-1070 2.6 05:10:29 10° SW 05:13:24 85° NW 05:16:19 10° NE
Cosmos 1190 Rocket 4.1 05:09:02 10° SW 05:14:12 57° WNW 05:19:27 10° NNE
STARLINK-1124 2.6 05:11:29 11° WSW 05:14:13 68° NNW 05:17:08 10° NE
STARLINK-1066 2.6 05:11:37 10° WSW 05:14:32 83° NW 05:17:28 10° NE
STARLINK-1081 2.6 05:11:51 10° WSW 05:14:45 83° NW 05:17:41 10° NE
CZ-4B R/B 3.1 05:09:34 10° NNE 05:14:56 79° WNW 05:20:12 10° SSW
STARLINK-1069 2.6 05:12:17 10° WSW 05:15:13 82° NNW 05:18:08 10° NE
STARLINK-1085 2.6 05:12:30 10° WSW 05:15:25 81° NW 05:18:21 10° NE
STARLINK-1086 2.6 05:12:44 10° WSW 05:15:39 81° NW 05:18:35 10° NE
STARLINK-1095 2.6 05:12:58 10° WSW 05:15:52 81° NW 05:18:48 10° NE
STARLINK-1077 2.6 05:13:12 10° WSW 05:16:06 80° NW 05:19:03 10° NE
Cosmos 1484 Rocket 4.3 05:13:34 10° NNW 05:16:11 17° WNW 05:18:49 10° WSW
STARLINK-1075 2.6 05:13:26 10° WSW 05:16:21 80° NNW 05:19:16 10° NE
STARLINK-1093 2.6 05:13:38 10° WSW 05:16:33 79° NW 05:19:29 10° NE
STARLINK-1123 4.0 05:12:48 10° SW 05:16:43 63° SE 05:20:40 10° ENE
STARLINK-1074 2.6 05:13:52 10° WSW 05:16:47 79° NNW 05:19:43 10° NE
STARLINK-1087 2.6 05:14:05 10° WSW 05:17:00 79° NW 05:19:56 10° NE
STARLINK-1088 2.6 05:14:19 10° WSW 05:17:13 78° NW 05:20:09 10° NE
STARLINK-1115 2.6 05:14:31 10° WSW 05:17:26 78° NW 05:20:22 10° NE
CZ-4B R/B 4.5 05:15:55 10° NW 05:17:31 12° WNW 05:18:23 12° WNW
STARLINK-1076 2.6 05:14:45 10° WSW 05:17:40 77° NW 05:20:35 10° NE
STARLINK-1092 2.6 05:14:58 10° WSW 05:17:53 77° NW 05:20:49 10° NE
STARLINK-1080 2.6 05:15:13 10° WSW 05:18:08 77° NW 05:21:03 10° NE
STARLINK-1090 2.6 05:15:26 10° WSW 05:18:21 76° NNW 05:21:16 10° NE
STARLINK-1089 2.6 05:15:38 10° WSW 05:18:34 76° NW 05:21:30 10° NE
STARLINK-1107 2.6 05:15:53 10° WSW 05:18:47 75° NW 05:21:43 10° NE
CZ-4C R/B 4.2 05:15:52 10° NW 05:18:59 14° NNW 05:22:20 10° NNE
STARLINK-1109 2.6 05:16:06 10° WSW 05:19:01 75° NW 05:21:57 10° NE
STARLINK-1091 2.6 05:16:21 10° WSW 05:19:15 75° NW 05:22:11 10° NE
STARLINK-1072 2.6 05:16:34 10° WSW 05:19:28 74° NNW 05:22:24 10° NE
STARLINK-1096 2.6 05:16:48 10° WSW 05:19:41 74° NW 05:22:37 10° NE
STARLINK-1079 2.6 05:17:01 10° WSW 05:19:55 74° NW 05:22:51 10° NE
ALOS 3.1 05:16:06 10° N 05:20:07 29° WNW 05:24:08 10° SW
STARLINK-1116 2.6 05:17:14 10° WSW 05:20:09 73° NNW 05:23:05 10° NE
STARLINK-1094 2.6 05:17:41 10° WSW 05:20:36 72° NNW 05:23:31 10° NE
STARLINK-1117 2.6 05:17:54 10° WSW 05:20:48 72° NW 05:23:44 10° NE
STARLINK-1078 2.6 05:18:09 10° WSW 05:21:03 72° NNW 05:23:59 10° NE
STARLINK-1097 3.9 05:17:14 10° SW 05:21:10 68° SE 05:25:08 10° ENE
STARLINK-1108 2.6 05:18:22 10° WSW 05:21:16 71° NW 05:24:11 10° NE
STARLINK-1071 2.6 05:18:35 10° WSW 05:21:29 71° NNW 05:24:24 10° NE
ATLAS CENTAUR R/B 3.6 05:19:33 10° WNW 05:21:37 13° NW 05:23:38 10° N
STARLINK-1110 2.6 05:18:49 10° WSW 05:21:43 71° NW 05:24:39 10° NE
Cosmos 1459 Rocket 4.2 05:16:05 10° NNW 05:21:57 48° W 05:27:53 10° SSW
STARLINK-1122 2.6 05:19:16 10° WSW 05:22:11 70° NNW 05:25:06 10° NE
STARLINK-1126 2.6 05:19:29 10° WSW 05:22:23 69° NW 05:25:19 10° NE
H-2A R/B 4.4 05:20:19 10° NNW 05:22:24 13° WNW 05:24:30 10° W
STARLINK-1082 2.6 05:19:43 10° WSW 05:22:37 69° NNW 05:25:33 10° NE
STARLINK-1100 2.6 05:19:57 10° WSW 05:22:51 69° NW 05:25:46 10° NE
STARLINK-1083 2.7 05:20:10 10° WSW 05:23:04 68° NNW 05:25:59 10° NE
STARLINK-1125 2.7 05:20:24 10° WSW 05:23:19 68° NNW 05:26:13 10° NE
Envisat 4.4 05:19:48 10° NNE 05:24:41 45° E 05:29:32 10° S
Cosmos 2084 3.6 05:20:30 10° SW 05:25:00 85° SE 05:29:31 10° NE
Cosmos 1656 Rocket 3.7 05:19:36 10° NNW 05:25:18 79° WSW 05:30:58 10° SSE
STARLINK-1099 3.7 05:21:41 10° SW 05:25:39 74° SE 05:29:38 10° ENE
Cosmos 1725 Rocket 4.0 05:21:51 10° N 05:28:06 78° W 05:34:23 10° S
Cosmos 1346 Rocket 4.5 05:24:31 10° N 05:28:11 37° ENE 05:31:48 10° SE
STARLINK-1118 2.6 05:26:24 10° WSW 05:28:57 52° NNW 05:31:31 10° NE
Cosmos 2123 Rocket 4.0 05:23:24 10° SSW 05:29:43 73° W 05:36:02 10° N
STARLINK-1104 3.6 05:26:09 10° SW 05:30:08 80° SE 05:34:08 10° ENE
Cosmos 1328 Rocket 4.1 05:26:41 10° S 05:31:04 67° E 05:35:30 10° NNE
Cosmos 676 Rocket 4.0 05:25:57 10° SSW 05:31:13 68° WNW 05:36:34 10° NNE
Cosmos 1151 Rocket 3.5 05:28:24 10° S 05:32:39 67° E 05:36:58 10° NNE
STARLINK-1144 3.6 05:30:40 10° SW 05:34:39 86° SE 05:38:40 10° NE
Cosmos 1802 Rocket 4.3 05:29:08 10° NNW 05:35:15 47° W 05:41:19 10° SSW
